Wind_Speed
4 4 3 2 5 6 5 5 5 6 6 6 7 8 8 8 9 9 10 10 9 10 11 11 11 11 11 11 11 11 12 12 12 13 13 14 15 16 16 17 17 17 17 17 16 16 16 15 14
4 4 3 3 5 5 5 5 6 7 7 7 8 9 9 9 10 10 11 11 11 12 13 13 13 13 14 14 14 14 14 14 15 15 15 15 16 16 17 17 18 18 17 17 17 17 16 15 14
5 4 5 4 5 5 5 6 7 8 8 9 9 10 10 11 11 11 12 13 14 14 14 15 15 15 16 16 17 17 17 17 17 18 18 17 17 17 18 19 19 19 18 18 18 17 16 16 14
5 6 7 7 7 7 7 6 6 8 10 10 11 11 11 12 12 13 13 14 15 16 16 16 17 17 18 18 19 20 20 21 21 20 20 20 20 19 19 20 21 20 20 19 19 18 17 16 15
6 7 8 9 9 8 8 8 9 9 11 11 12 12 12 13 13 13 14 15 16 17 17 18 19 19 19 20 20 20 21 22 23 24 23 23 23 22 21 21 21 21 21 20 20 19 18 17 15
7 8 10 11 10 9 9 9 11 11 11 12 13 13 13 14 14 15 15 16 16 17 18 19 20 20 21 21 22 21 22 24 24 25 26 26 26 26 24 23 23 23 23 22 21 20 19 18 16
9 10 11 11 11 10 11 11 12 12 13 13 13 14 14 14 15 15 16 16 17 18 19 20 20 21 22 22 23 23 24 24 25 26 28 28 28 28 27 26 26 25 24 24 23 21 20 19 18
11 12 12 12 12 12 12 12 12 12 13 14 14 15 15 15 16 16 17 18 18 19 20 20 20 21 21 22 23 24 25 25 26 27 28 29 30 30 30 30 29 28 27 25 24 24 22 21 20
12 12 13 13 13 13 13 13 14 14 14 14 14 15 16 16 17 17 18 18 19 20 20 20 21 21 22 23 24 25 26 26 27 28 28 29 30 30 31 30 30 30 29 28 26 26 25 23 22
12 13 13 13 13 13 13 13 13 13 13 13 14 14 15 16 17 18 19 19 20 20 21 21 21 22 23 24 25 25 26 27 28 29 29 30 30 30 31 30 30 30 29 28 27 27 26 25 24
14 14 13 13 12 12 12 12 13 14 13 13 14 15 16 17 18 19 20 20 20 21 22 22 22 22 23 23 24 24 25 26 28 29 30 30 30 30 30 31 31 30 30 30 29 27 28 27 26
16 14 14 12 11 11 11 11 12 13 13 13 14 15 17 19 19 20 20 20 21 22 21 21 21 21 21 21 21 22 23 24 26 27 29 30 31 31 31 31 32 31 30 30 29 29 28 28 28
16 14 13 12 12 12 11 10 11 12 12 13 14 16 18 19 19 20 20 21 21 21 21 20 20 20 20 20 20 20 21 22 23 24 26 27 29 31 32 33 33 32 32 32 30 30 30 28 28
16 13 11 11 11 11 11 10 10 11 12 13 14 16 17 18 19 20 20 20 20 20 20 20 20 20 20 19 19 20 20 21 21 22 23 25 26 28 29 31 33 33 33 33 32 31 31 30 28
15 14 11 10 10 11 9 9 10 10 11 12 13 14 16 17 18 19 20 20 20 20 20 20 20 19 19 18 18 19 19 19 20 20 21 22 24 26 27 29 32 33 33 33 32 32 32 32 31
15 14 11 10 10 9 9 9 8 9 10 11 12 14 15 17 18 18 19 19 20 20 20 20 20 19 19 18 18 18 18 18 19 19 20 20 22 24 26 27 29 31 33 32 32 33 33 33 32
14 13 11 11 9 7 7 7 8 9 9 10 11 13 15 16 17 17 18 19 20 21 21 21 20 20 19 18 17 17 18 18 18 18 18 18 19 21 23 25 27 29 31 32 32 33 34 33 34
14 13 12 11 9 7 6 6 7 8 9 9 11 13 14 15 16 17 18 19 21 22 21 21 20 20 19 18 18 18 18 17 17 16 16 16 17 18 19 21 24 27 29 30 31 32 33 34 34
14 13 11 10 8 8 6 5 6 7 8 9 10 12 14 15 17 18 19 20 21 21 21 21 21 20 20 19 19 18 18 18 17 17 16 15 15 16 17 18 20 23 26 28 30 31 32 33 35
14 13 11 9 8 7 6 5 5 5 6 8 10 12 14 15 17 18 19 20 21 21 22 22 21 20 20 20 20 19 19 18 18 17 15 15 14 14 14 15 16 18 21 25 27 29 30 32 33
13 11 9 8 7 6 5 4 3 4 5 7 9 11 13 15 16 17 18 19 20 21 22 22 21 20 21 21 21 20 19 19 18 17 15 14 13 12 12 12 14 15 18 21 24 27 29 30 32
11 9 8 7 7 6 4 3 2 3 4 6 9 11 12 13 15 16 17 18 19 20 21 22 22 21 21 21 21 21 21 20 18 17 16 14 13 12 11 10 11 13 14 17 20 23 26 27 29
10 8 7 8 6 5 4 2 1 2 4 6 8 9 11 13 14 15 16 17 19 20 21 22 22 22 22 22 21 21 21 21 19 18 17 15 13 12 10 9 9 10 12 14 17 20 23 25 27
8 8 8 8 6 5 4 2 1 2 4 5 7 9 10 12 13 14 15 16 18 19 21 22 23 23 23 23 22 22 22 21 20 19 18 17 15 12 10 9 7 8 10 12 15 17 20 23 25
9 8 9 8 7 6 5 3 1 2 3 5 7 8 9 10 12 13 14 15 17 18 20 21 23 23 24 24 23 22 22 22 21 20 19 18 16 13 11 9 7 6 8 10 13 15 17 20 23
8 8 9 9 9 7 6 3 2 1 2 4 6 7 8 9 11 12 13 15 16 18 19 21 22 23 24 24 24 23 22 22 22 21 20 19 17 15 12 10 8 6 6 7 10 12 14 17 19
9 9 9 9 9 8 6 5 3 2 1 3 4 6 7 8 9 11 12 14 15 17 18 20 21 23 24 24 24 24 23 22 22 22 21 20 19 17 14 12 9 7 6 6 7 10 12 14 17
9 9 9 9 9 8 7 6 5 4 1 1 2 4 5 7 8 10 12 13 15 16 18 19 21 22 23 24 24 24 24 24 23 22 22 21 20 19 16 14 11 8 7 6 5 6 9 12 15
9 9 9 9 10 9 7 5 5 3 2 1 1 3 4 6 8 10 11 12 14 16 17 19 20 21 22 23 24 24 24 24 24 23 22 21 21 20 18 16 13 11 8 6 6 5 6 8 12
9 10 10 10 10 9 8 6 6 4 3 1 1 2 4 6 7 9 10 12 13 15 16 18 19 20 21 22 23 24 24 24 24 23 23 22 21 20 19 17 15 13 11 8 6 5 4 5 7
Wind_Direction
8 1 344 359 49 53 47 30 20 14 4 348 336 333 327 319 317 315 313 307 305 304 307 302 295 290 283 278 275 272 268 265 262 260 258 258 258 256 249 250 252 254 258 262 265 266 269 272 276
347 342 337 340 27 34 27 9 1 355 346 335 330 325 318 315 313 310 307 303 303 303 300 298 295 288 281 276 274 271 268 266 264 262 259 257 257 254 251 251 252 254 256 260 263 263 266 270 273
332 326 333 358 8 10 5 358 349 343 337 332 328 322 317 314 311 308 304 302 301 301 297 293 290 288 283 277 274 271 268 265 263 262 258 257 256 256 255 253 252 253 256 259 259 260 262 266 269
325 325 334 341 341 340 342 343 342 336 331 330 327 322 318 315 311 308 305 302 300 297 293 291 290 286 282 278 275 272 269 266 263 260 257 255 254 256 256 253 252 253 257 259 257 257 259 262 265
322 321 320 319 322 322 327 332 339 337 331 328 325 322 318 315 312 309 306 303 301 297 294 290 288 284 280 276 275 274 270 267 265 261 258 256 257 257 258 256 254 253 255 256 256 255 256 259 261
299 303 309 311 311 311 321 327 334 335 331 328 326 322 318 315 313 311 309 306 303 300 295 292 289 285 279 275 274 273 272 268 266 263 262 260 257 257 259 257 255 254 254 254 254 255 255 256 258
287 295 300 304 305 309 317 325 329 331 331 328 326 324 324 319 319 316 313 309 305 300 296 294 290 286 281 277 273 272 270 268 266 264 262 260 258 256 257 257 255 254 254 253 252 252 254 254 254
281 289 295 299 304 314 320 322 327 333 332 328 327 327 327 324 322 319 316 312 308 304 300 296 291 286 281 276 274 272 270 267 266 265 263 261 259 257 256 255 254 253 253 253 253 251 250 251 251
275 280 288 294 302 309 317 321 327 331 331 329 328 328 328 328 326 322 318 315 312 308 304 300 294 287 283 280 276 273 271 268 267 267 264 261 260 258 255 255 254 253 252 252 253 251 248 248 248
269 275 283 289 298 305 314 317 322 328 329 331 332 333 333 331 330 327 324 322 318 314 309 305 299 293 287 283 280 277 273 270 267 265 264 262 260 259 257 253 252 250 250 250 249 248 246 245 245
267 272 281 286 296 304 312 321 325 328 330 333 337 339 337 336 334 332 329 326 324 321 317 313 307 301 294 288 284 280 276 273 269 266 263 261 259 259 257 254 251 250 249 248 247 245 244 242 242
267 268 277 283 294 305 314 320 324 327 331 335 339 340 339 338 336 333 331 329 327 325 322 317 312 309 303 297 292 286 281 276 272 268 264 262 259 257 255 254 251 249 248 248 247 243 242 241 241
266 272 281 283 295 301 309 315 321 325 331 338 342 343 341 340 338 336 335 334 332 330 327 323 318 315 309 303 300 296 290 284 278 272 267 264 261 258 255 252 251 248 247 246 246 243 240 241 240
271 279 278 286 296 298 305 313 321 327 332 339 343 344 342 342 341 341 340 339 339 337 334 332 327 322 318 312 306 302 298 291 284 277 270 266 262 260 257 253 249 246 245 244 244 243 240 240 239
267 275 281 290 294 299 306 314 320 328 333 339 344 346 345 344 344 344 344 345 344 342 340 338 334 331 325 319 314 309 304 298 291 283 276 271 265 262 258 254 249 245 244 242 241 241 240 240 239
265 271 284 287 296 303 310 313 321 327 333 340 347 350 350 349 349 349 349 350 349 347 344 342 339 336 331 325 320 316 311 306 300 292 284 277 271 266 262 257 250 245 242 241 238 238 236 237 237
264 273 278 283 294 306 307 314 325 330 337 346 354 357 357 355 354 354 353 354 352 350 348 345 343 341 338 334 328 324 320 315 309 301 293 285 276 271 268 262 252 245 241 239 237 236 235 236 236
259 269 278 282 292 305 306 319 326 333 343 354 1 4 2 359 359 357 357 356 355 353 351 349 348 347 346 343 337 333 329 325 321 313 303 293 284 277 272 265 254 246 241 238 236 235 235 235 234
251 263 274 281 291 301 315 334 335 341 351 3 8 7 5 2 1 0 360 359 358 357 355 354 353 352 351 348 345 342 339 336 331 324 315 304 293 285 280 269 257 248 241 238 236 235 234 234 232
249 263 269 278 293 304 323 331 330 339 357 5 9 9 7 3 3 2 1 1 1 0 359 358 358 357 356 355 352 349 345 342 338 333 326 316 305 295 287 275 261 251 245 240 237 235 235 234 233
248 258 272 278 290 304 315 321 326 342 360 10 15 10 6 4 4 3 2 2 3 2 1 1 1 0 360 359 358 356 353 349 346 343 336 328 318 306 291 278 265 254 247 241 237 235 234 234 233
246 256 267 282 291 300 304 301 318 355 14 18 16 9 5 6 6 5 4 5 5 4 5 5 5 4 3 2 1 0 359 356 352 350 346 338 329 317 302 284 271 259 249 242 238 235 234 233 233
241 248 263 272 276 275 274 269 315 18 31 27 19 10 7 7 6 6 7 7 6 7 8 9 9 8 6 5 4 4 2 1 357 354 352 347 339 329 317 303 282 264 253 246 240 237 235 234 233
235 241 252 259 258 251 248 217 113 61 43 33 23 14 9 7 6 7 8 8 8 10 11 11 12 11 10 9 8 7 6 5 2 359 356 354 350 342 333 320 303 276 260 250 244 241 237 235 234
234 238 243 246 245 242 234 200 146 75 47 35 25 17 12 11 9 8 7 7 8 10 11 11 12 13 13 12 11 11 10 9 7 5 3 360 357 352 343 335 324 300 274 258 249 246 240 236 235
234 235 238 244 250 239 229 213 193 132 52 36 25 18 13 12 9 7 7 7 8 9 11 11 13 13 14 14 14 13 12 11 10 9 8 6 4 0 352 343 333 318 295 274 256 248 244 238 236
230 231 235 239 243 238 227 211 193 191 86 39 22 14 10 7 5 5 5 7 8 9 10 11 12 13 14 15 15 15 14 13 12 11 11 11 9 5 1 355 346 333 317 300 272 253 246 241 237
227 230 231 231 235 239 230 209 191 197 171 43 17 10 7 4 1 1 4 6 7 8 9 10 11 11 13 14 14 15 15 14 13 13 13 13 13 13 11 7 1 350 336 324 305 268 250 242 238
226 231 230 228 231 237 231 205 200 196 188 188 356 4 4 2 359 360 2 4 5 6 7 8 10 10 12 13 14 14 14 14 14 14 15 14 14 16 17 15 11 7 357 343 329 298 263 251 239
229 229 227 227 229 232 227 210 210 199 191 211 324 351 352 353 355 357 359 0 1 2 4 5 7 8 9 11 12 13 13 12 13 14 14 15 16 17 18 17 16 13 10 5 354 335 289 261 245
Height
5911 5908 5906 5904 5904 5905 5904 5905 5904 5904 5903 5901 5900 5899 5898 5897 5897 5897 5893 5890 5889 5889 5888 5887 5887 5886 5886 5885 5885 5885 5884 5884 5884 5884 5884 5884 5884 5884 5884 5885 5886 5886 5887 5887 5887 5887 5887 5887 5887
5910 5908 5906 5904 5904 5904 5905 5904 5903 5903 5902 5900 5899 5898 5897 5895 5894 5893 5890 5888 5887 5886 5886 5885 5884 5884 5883 5883 5882 5882 5882 5881 5881 5881 5881 5881 5881 5882 5882 5882 5883 5883 5884 5884 5885 5885 5885 5885 5885
5910 5908 5906 5904 5904 5905 5905 5904 5903 5902 5900 5899 5898 5896 5895 5893 5892 5890 5889 5887 5885 5884 5883 5882 5882 5881 5880 5880 5879 5879 5878 5878 5878 5878 5878 5878 5878 5879 5879 5879 5880 5880 5881 5881 5882 5882 5882 5883 5883
5910 5908 5907 5906 5905 5905 5904 5903 5901 5901 5899 5898 5896 5894 5893 5891 5889 5888 5886 5884 5883 5882 5880 5879 5878 5877 5877 5876 5875 5875 5874 5874 5874 5874 5874 5874 5874 5875 5875 5876 5876 5877 5878 5878 5879 5879 5880 5880 5881
5909 5908 5907 5906 5905 5903 5902 5901 5900 5899 5898 5896 5894 5892 5890 5889 5887 5885 5883 5882 5880 5878 5877 5876 5874 5873 5872 5872 5871 5870 5870 5869 5869 5869 5870 5870 5870 5871 5871 5872 5872 5873 5874 5875 5875 5876 5877 5878 5878
5908 5907 5906 5905 5904 5902 5900 5900 5899 5897 5896 5894 5892 5890 5888 5886 5884 5883 5881 5879 5877 5875 5873 5871 5870 5869 5868 5867 5866 5865 5865 5864 5864 5864 5864 5865 5865 5866 5866 5867 5868 5869 5870 5871 5872 5873 5874 5875 5875
5907 5906 5905 5904 5902 5901 5899 5898 5896 5895 5893 5892 5890 5888 5886 5884 5882 5880 5878 5876 5874 5871 5869 5867 5866 5864 5863 5862 5861 5860 5859 5859 5859 5858 5858 5859 5860 5860 5861 5862 5863 5864 5865 5866 5868 5869 5870 5871 5872
5905 5905 5903 5902 5901 5899 5898 5896 5894 5892 5891 5890 5888 5886 5883 5881 5879 5877 5874 5872 5870 5867 5865 5863 5861 5859 5858 5857 5855 5854 5853 5853 5853 5852 5852 5853 5854 5854 5855 5856 5857 5859 5860 5861 5863 5864 5866 5867 5868
5903 5904 5901 5900 5899 5898 5896 5894 5892 5890 5889 5887 5885 5883 5881 5878 5876 5873 5871 5868 5866 5863 5861 5858 5856 5854 5852 5851 5849 5848 5847 5847 5846 5846 5846 5846 5847 5848 5849 5850 5851 5853 5854 5856 5858 5859 5861 5863 5864
5901 5900 5899 5898 5896 5895 5894 5892 5890 5889 5887 5885 5883 5881 5878 5875 5873 5870 5867 5864 5861 5858 5856 5853 5851 5848 5846 5845 5843 5842 5841 5840 5840 5839 5839 5840 5840 5841 5842 5843 5845 5846 5848 5850 5852 5854 5855 5857 5860
5898 5897 5896 5894 5893 5892 5891 5889 5888 5886 5885 5883 5881 5878 5875 5873 5870 5867 5864 5860 5857 5854 5851 5848 5845 5843 5840 5838 5837 5835 5834 5833 5833 5832 5832 5833 5833 5834 5835 5836 5838 5840 5842 5843 5845 5847 5850 5852 5855
5895 5893 5893 5892 5891 5890 5889 5887 5886 5885 5883 5881 5878 5875 5873 5870 5867 5864 5861 5857 5854 5850 5847 5844 5841 5838 5835 5832 5830 5829 5827 5826 5825 5825 5825 5825 5826 5826 5827 5829 5830 5832 5835 5837 5839 5841 5844 5847 5849
5891 5890 5890 5889 5889 5888 5887 5885 5884 5882 5880 5878 5875 5873 5870 5867 5864 5861 5857 5854 5850 5847 5843 5839 5836 5833 5830 5827 5825 5823 5821 5820 5818 5817 5817 5817 5818 5818 5819 5821 5823 5825 5827 5830 5833 5835 5838 5841 5844
5888 5887 5887 5887 5886 5886 5885 5883 5882 5880 5878 5876 5873 5871 5868 5865 5862 5858 5855 5851 5847 5843 5839 5836 5832 5829 5825 5823 5820 5818 5816 5814 5812 5811 5810 5810 5810 5811 5812 5813 5815 5817 5819 5822 5825 5828 5831 5834 5838
5886 5886 5885 5885 5884 5883 5883 5881 5880 5878 5876 5874 5872 5869 5866 5863 5860 5856 5852 5849 5845 5841 5837 5833 5829 5825 5822 5819 5816 5813 5810 5808 5806 5804 5803 5803 5803 5803 5804 5805 5807 5809 5811 5814 5817 5821 5824 5828 5831
5883 5883 5883 5883 5882 5881 5882 5880 5878 5876 5874 5872 5870 5867 5865 5861 5858 5854 5850 5847 5843 5839 5834 5830 5826 5823 5819 5815 5812 5809 5806 5803 5801 5799 5797 5796 5796 5795 5796 5797 5798 5800 5803 5807 5810 5813 5817 5820 5824
5880 5880 5880 5881 5880 5879 5879 5877 5876 5874 5872 5870 5868 5866 5863 5860 5857 5853 5849 5845 5841 5837 5832 5828 5824 5820 5816 5812 5808 5805 5802 5799 5796 5794 5792 5790 5789 5789 5789 5789 5790 5792 5795 5798 5802 5806 5809 5813 5817
5878 5878 5878 5878 5878 5877 5876 5875 5873 5871 5870 5868 5866 5864 5861 5859 5855 5852 5848 5844 5840 5835 5831 5826 5822 5818 5814 5810 5806 5802 5799 5795 5792 5789 5787 5785 5783 5782 5782 5782 5782 5784 5787 5791 5794 5798 5802 5805 5809
5875 5875 5876 5876 5875 5874 5873 5872 5871 5869 5868 5866 5864 5862 5860 5857 5854 5850 5846 5842 5838 5834 5830 5825 5821 5816 5812 5808 5803 5799 5796 5792 5788 5785 5782 5780 5778 5777 5776 5775 5776 5777 5780 5784 5787 5790 5794 5798 5802
5871 5872 5873 5872 5872 5872 5871 5870 5869 5868 5866 5865 5863 5861 5859 5856 5853 5849 5846 5842 5838 5834 5829 5824 5820 5815 5811 5806 5802 5797 5793 5789 5785 5782 5779 5776 5774 5772 5771 5770 5770 5772 5774 5777 5780 5783 5787 5791 5794
5869 5869 5869 5870 5869 5869 5869 5869 5868 5867 5865 5863 5861 5859 5858 5855 5852 5849 5845 5842 5838 5834 5829 5824 5819 5814 5810 5805 5800 5796 5791 5787 5783 5779 5776 5773 5770 5768 5767 5766 5766 5767 5768 5771 5773 5776 5780 5784 5788
5866 5866 5867 5867 5867 5867 5868 5868 5867 5866 5864 5862 5860 5859 5857 5855 5852 5849 5846 5842 5838 5834 5829 5824 5819 5814 5809 5804 5799 5795 5790 5785 5781 5777 5773 5770 5767 5765 5763 5762 5762 5763 5764 5765 5768 5770 5773 5777 5781
5863 5864 5865 5865 5865 5866 5866 5866 5866 5864 5862 5861 5860 5859 5857 5854 5852 5849 5846 5842 5838 5834 5829 5824 5819 5814 5809 5804 5799 5794 5789 5785 5780 5776 5772 5768 5765 5763 5761 5760 5759 5759 5760 5761 5763 5765 5768 5771 5774
5861 5862 5863 5863 5864 5864 5864 5864 5864 5862 5861 5861 5859 5858 5856 5854 5851 5849 5846 5843 5839 5834 5830 5825 5819 5814 5809 5804 5799 5794 5789 5785 5780 5775 5771 5767 5763 5761 5759 5757 5757 5757 5757 5758 5759 5761 5763 5765 5768
5859 5861 5862 5862 5862 5862 5862 5862 5863 5861 5861 5860 5858 5857 5855 5853 5851 5849 5846 5843 5839 5835 5830 5826 5820 5815 5810 5804 5799 5794 5790 5785 5780 5775 5770 5766 5763 5759 5757 5755 5754 5754 5754 5754 5755 5756 5758 5760 5762
5857 5859 5860 5861 5860 5860 5860 5860 5861 5860 5859 5858 5857 5856 5855 5853 5851 5849 5846 5843 5839 5835 5831 5826 5821 5816 5811 5805 5800 5795 5790 5785 5780 5775 5771 5766 5762 5759 5756 5754 5753 5752 5751 5751 5751 5752 5753 5755 5757
5855 5856 5858 5858 5858 5858 5858 5859 5859 5858 5858 5857 5857 5856 5855 5853 5852 5849 5846 5843 5840 5836 5832 5827 5822 5817 5812 5807 5801 5796 5791 5786 5781 5776 5772 5767 5763 5759 5755 5753 5751 5750 5749 5748 5748 5749 5749 5751 5752
5853 5854 5855 5856 5856 5856 5857 5857 5858 5857 5857 5857 5856 5856 5855 5853 5851 5849 5846 5843 5840 5836 5832 5828 5823 5818 5813 5808 5803 5798 5793 5787 5782 5777 5773 5768 5763 5759 5755 5752 5750 5748 5747 5746 5746 5745 5746 5747 5748
5851 5852 5852 5853 5854 5854 5855 5858 5857 5857 5856 5856 5856 5855 5854 5853 5851 5849 5846 5843 5840 5836 5833 5828 5824 5819 5815 5810 5804 5799 5794 5789 5784 5779 5774 5769 5765 5760 5756 5753 5750 5748 5746 5745 5744 5743 5743 5744 5745
5848 5849 5850 5851 5852 5852 5853 5858 5855 5855 5855 5855 5855 5854 5853 5852 5850 5848 5846 5843 5840 5837 5833 5829 5825 5820 5816 5811 5806 5801 5796 5791 5786 5781 5776 5771 5766 5762 5758 5755 5751 5748 5746 5744 5743 5742 5741 5741 5742